[[{"header":{"parameterUnit":"m.s-1","parameterCategory":1,"la1":30.2992,"la2":30.254,"lo1":-89.0895,"lo2":-89.0443,"dy":0.0025,"dx":0.0025,"nx":19,"ny":19,"refTime":"2026-03-30T03:00:00:Z","depth":0,"parameterNumber":2,"parameterNumberName":"U-component_of_WINDS"},"data":[0,0,0,-6.9527,-6.9529,-6.9593,-6.9593,-6.9728,-6.973,0,0,0,0,0,0,0,0,0,0,0,-6.954,-6.9542,-6.9527,-6.9529,-6.9593,-6.9593,-6.9728,-6.973,0,0,0,0,0,0,0,0,0,0,0,-6.9539,-6.9542,-6.9544,-6.953,-6.9593,-6.9593,-6.9728,-6.966,0,0,0,0,0,0,0,0,0,0,-6.9589,-6.9633,-6.9541,-6.9544,-6.953,-6.9593,-6.9593,-6.9656,-6.9665,-6.9722,0,-6.9782,0,-6.9759,-6.9743,-6.9743,0,0,0,-6.9505,-6.9626,-6.9614,-6.9545,-6.9531,-6.9593,-6.9558,-6.966,-6.967,-6.9734,-6.9783,-6.9787,-6.9761,-6.9744,-6.9745,-7.0158,-7.0161,0,0,-6.9501,-6.9569,-6.9608,-6.9622,-6.9616,-6.9556,-6.956,-6.9665,-6.9724,-6.9784,-6.9789,-6.9763,-6.9745,-6.9746,-7.0155,-7.0158,0,0,0,-6.9508,-6.9568,-6.9552,-6.9618,-6.9626,-6.9558,-6.9563,-6.9719,-6.9708,-6.979,-6.9765,-6.9746,-6.9748,-7.0151,-7.0156,-7.0372,0,0,0,-6.9504,-6.9571,-6.9552,-6.9594,-6.9625,-6.9673,-6.9616,-6.9701,-6.9711,-6.9764,-6.9746,-6.975,-7.0148,-7.0154,-7.0359,-7.0462,0,0,0,-6.9525,-6.9573,-6.9593,-6.9597,-6.9627,-6.967,-6.9664,-6.9702,-6.9697,-6.9743,-6.9751,-7.0145,-7.0153,-7.0347,-7.0442,-7.059,0,0,0,-6.9566,-6.9785,-6.9598,-6.9833,-6.9627,-6.9804,-6.9663,-6.9791,-6.9857,-6.9747,-7.0148,-7.0156,-7.0343,-7.043,-7.0577,-7.0724,-7.0792,0,0,-6.988,-6.9825,-6.9958,-6.9792,-7.002,-6.9789,-7.0047,-7.0043,-6.9986,-7.0104,-7.0113,-7.0363,-7.0441,-7.0587,-7.1154,-7.1208,0,0,0,-7.008,-7.0176,-7.0222,-7.0288,-7.0291,-7.0301,-7.0251,-7.025,-7.0346,-7.0061,-7.0455,-7.0499,-7.0582,-7.0649,-7.0695,-7.0761,-7.019,-7.0189,-7.0188,-7.062,-7.0535,-7.0748,-7.0672,-7.0738,-7.0685,-7.073,-7.0719,-7.0614,-7.0709,-7.0742,-7.1097,-7.1178,-7.1212,-7.1282,-7.0815,-7.0816,-7.0816,-7.0817,-7.107,-7.1191,-7.1048,-7.1203,-7.1113,-7.1242,-7.12,-7.1121,-7.1228,-7.1064,-7.1133,-7.0959,-7.1275,-7.1331,-7.0832,-7.083,-7.0828,-7.0826,-7.0825,-7.1412,-7.1455,-7.145,-7.1537,-7.1614,-7.1529,-7.1638,-7.1552,-7.1472,-7.154,-7.1565,-7.1561,-7.1545,-7.1559,-7.156,-7.1561,-7.1562,-7.1563,-7.1564,-7.1767,-7.1755,-7.1857,-7.188,-7.1911,-7.1941,-7.1891,-7.1919,-7.1928,-7.1856,-7.1856,-7.1742,-7.1322,-7.1217,-7.1583,-7.1579,-7.1577,-7.1575,-7.1574,-7.2251,-7.2128,-7.2287,-7.2318,-7.2337,-7.2419,-7.2308,-7.2374,-7.2384,-7.2441,-7.2313,-7.2017,-7.1955,-7.1917,-7.183,-7.2331,-7.2331,-7.2331,-7.2331,-7.2538,-7.2498,-7.2641,-7.2697,-7.2741,-7.2658,-7.284,-7.2804,-7.2747,-7.2749,-7.2664,-7.2542,-7.2507,-7.2465,-7.2415,-7.2332,-7.2951,-7.2951,-7.2952,-7.2829,-7.2791,-7.2962,-7.2904,-7.2913,-7.2923,-7.3091,-7.3161,-7.3071,-7.2975,-7.2748,-7.2722,-7.2522,-7.2463,-7.2359,-7.2284,-7.2129,0,0]},{"header":{"parameterUnit":"m.s-1","parameterCategory":1,"la1":30.2992,"la2":30.254,"lo1":-89.0895,"lo2":-89.0443,"dy":0.0025,"dx":0.0025,"nx":19,"ny":19,"refTime":"2026-03-30T03:00:00:Z","depth":0,"parameterNumber":3,"parameterNumberName":"V-component_of_WINDS"},"data":[0,0,0,0.7575,0.7573,0.7493,0.7492,0.7412,0.7411,0,0,0,0,0,0,0,0,0,0,0,0.7613,0.7613,0.7575,0.7573,0.7493,0.7492,0.7412,0.7411,0,0,0,0,0,0,0,0,0,0,0,0.7613,0.7613,0.7613,0.7573,0.7493,0.7492,0.7412,0.7465,0,0,0,0,0,0,0,0,0,0,0.7539,0.7588,0.7613,0.7613,0.7573,0.7493,0.7492,0.7467,0.7461,0.7458,0,0.746,0,0.7435,0.7407,0.7407,0,0,0,0.7562,0.7592,0.7558,0.7613,0.7572,0.7493,0.7526,0.7463,0.7457,0.7451,0.7458,0.7455,0.7433,0.7407,0.7407,0.7428,0.7429,0,0,0.7567,0.7605,0.7563,0.7555,0.757,0.7529,0.7524,0.7459,0.7469,0.7458,0.7452,0.7432,0.7407,0.7406,0.7428,0.7429,0,0,0,0.7587,0.7609,0.7576,0.7559,0.7543,0.7527,0.7521,0.7472,0.7458,0.7451,0.7431,0.7406,0.7406,0.7427,0.7428,0.7497,0,0,0,0.7589,0.7621,0.7578,0.7601,0.7545,0.7506,0.7535,0.7463,0.7454,0.7431,0.7406,0.7405,0.7426,0.7428,0.7494,0.7523,0,0,0,0.7613,0.7623,0.7617,0.7603,0.757,0.7507,0.7489,0.746,0.7442,0.7407,0.7405,0.7426,0.7427,0.749,0.7517,0.7541,0,0,0,0.765,0.7677,0.7618,0.7641,0.7571,0.755,0.7489,0.747,0.7449,0.7406,0.7426,0.7428,0.7489,0.7514,0.7538,0.7568,0.7584,0,0,0.7706,0.7685,0.7696,0.7641,0.7641,0.7559,0.7569,0.7511,0.7471,0.7445,0.7445,0.7495,0.7517,0.754,0.766,0.7673,0,0,0,0.7727,0.7735,0.7726,0.7709,0.7667,0.7634,0.7571,0.755,0.7526,0.7466,0.7508,0.752,0.7532,0.7545,0.7556,0.7564,0.7435,0.7435,0.7435,0.7861,0.7811,0.7826,0.7767,0.7751,0.7688,0.767,0.7631,0.7583,0.7595,0.7586,0.7665,0.7681,0.7689,0.7699,0.7598,0.7598,0.7598,0.7598,0.7939,0.7943,0.7883,0.7876,0.7824,0.7817,0.7758,0.7725,0.7712,0.7666,0.7674,0.763,0.7705,0.7711,0.7603,0.7602,0.7601,0.7601,0.7601,0.8022,0.8015,0.7991,0.7962,0.7945,0.7885,0.7876,0.7827,0.7782,0.779,0.7777,0.7776,0.7769,0.7787,0.7787,0.7788,0.7788,0.7788,0.7788,0.8117,0.8087,0.8086,0.8047,0.803,0.8003,0.7942,0.7924,0.7892,0.7858,0.7858,0.7811,0.7722,0.7701,0.7792,0.7792,0.7791,0.7791,0.779,0.8215,0.8186,0.8184,0.8168,0.8119,0.8107,0.8047,0.8016,0.7994,0.7992,0.7944,0.7886,0.7861,0.7852,0.7834,0.7954,0.7954,0.7954,0.7954,0.8285,0.8269,0.8257,0.8236,0.8209,0.8155,0.8156,0.811,0.8057,0.8041,0.8017,0.7989,0.7982,0.7961,0.795,0.7932,0.8075,0.8075,0.8075,0.8344,0.8323,0.8332,0.8282,0.8241,0.8208,0.8207,0.8185,0.8119,0.8079,0.8028,0.8023,0.7978,0.7966,0.7924,0.7907,0.7874,0,0]}]]